Tracking 27112 objects as of 27-Mar-2023
HD Live streaming from Space Station
objects crossing your sky now

ARIANE 42L+3 R/B

Track ARIANE 42L+3 R/B now!


NORAD ID: 23671
Int'l Code: 1995-049B
Perigee: 400.6 km
Apogee: 35,678.9 km
Inclination: 7.0 °
Period: 632.6 minutes
Semi major axis: 24410 km
RCS: 18.3882 m2 (large)
Launch date: September 24, 1995
Source: France (FR)
Launch site: FRENCH GUIANA (FRGUI)

Note: This is a ROCKET BODY
Your satellite tracking list
Your tracking list is empty




NASA's NSSDC Master Catalog

Two Line Element Set (TLE):
1 23671U 95049B   23084.39365554  .00000874  00000-0  23765-2 0  9997
2 23671   6.9946 180.0702 7225987  36.4213 355.5991  2.27630825225384
Source of the keplerian elements: AFSPC